This is the latest recevied weather packets stored in our database for station/object KD0SBN-3. If no packets are shown the sender has not sent any weather packets the latest 10 day(s).
| Time | Temp. | Humidity | Pressure | Rain* | Wind** | Luminosity | Snow |
|---|---|---|---|---|---|---|---|
| 1777851076 | 14.44° C | 23% | 1024 hPa | 0 mm | - | 108 W/m² | - |
| 1777850773 | 14.44° C | 21% | 1024 hPa | 0 mm | - | 121 W/m² | - |
| 1777850470 | 14.44° C | 21% | 1024.1 hPa | 0 mm | - | 115 W/m² | - |
| 1777850169 | 14.44° C | 21% | 1024.2 hPa | 0 mm | - | 105 W/m² | - |
| 1777849865 | 14.44° C | 22% | 1024.1 hPa | 0 mm | - | 117 W/m² | - |
| 1777849562 | 15° C | 21% | 1024.1 hPa | 0 mm | - | 121 W/m² | - |
| 1777849259 | 16.67° C | 20% | 1024.1 hPa | 0 mm | - | 116 W/m² | - |
| 1777848956 | 15° C | 20% | 1024.1 hPa | 0 mm | - | 119 W/m² | - |
| 1777848651 | 15.56° C | 20% | 1024.2 hPa | 0 mm | - | 141 W/m² | - |
| 1777848348 | 15.56° C | 19% | 1024.2 hPa | 0 mm | - | 144 W/m² | - |
| 1777848046 | 14.44° C | 20% | 1024.2 hPa | 0 mm | - | 123 W/m² | - |
| 1777847744 | 14.44° C | 19% | 1024.3 hPa | 0 mm | - | 98 W/m² | - |
| 1777847439 | 15° C | 19% | 1024.3 hPa | 0 mm | - | 94 W/m² | - |
| 1777847138 | 16.11° C | 18% | 1024.3 hPa | 0 mm | - | 94 W/m² | - |
| 1777846836 | 16.67° C | 18% | 1024.3 hPa | 0 mm | - | 95 W/m² | - |
| 1777846533 | 16.67° C | 17% | 1024.6 hPa | 0 mm | - | 125 W/m² | - |
| 1777846231 | 16.11° C | 17% | 1024.7 hPa | 0 mm | - | 455 W/m² | - |
| 1777845927 | 15.56° C | 18% | 1024.9 hPa | 0 mm | - | 495 W/m² | - |
| 1777845624 | 16.11° C | 18% | 1025 hPa | 0 mm | - | 471 W/m² | - |
| 1777845321 | 16.67° C | 18% | 1024.9 hPa | 0 mm | - | 276 W/m² | - |
| 1777845017 | 16.67° C | 18% | 1024.9 hPa | 0 mm | - | 415 W/m² | - |
| 1777844716 | 16.11° C | 18% | 1024.9 hPa | 0 mm | - | 415 W/m² | - |
| 1777844412 | 16.67° C | 19% | 1025 hPa | 0 mm | - | 515 W/m² | - |
| 1777844111 | 17.78° C | 19% | 1025 hPa | 0 mm | - | 551 W/m² | - |
| 1777843807 | 16.67° C | 19% | 1025.1 hPa | 0 mm | - | 598 W/m² | - |
* Rain latest hour (hover to see other rain measurements)
** Current wind speed in m/s (hover to see current wind gust speed)